Regional Weather Roundup
Issued by NWS Wakefield, VA

Home | Current Version | Previous Version | Text Only | Print | Product List | Glossary Off
Versions: 1 2 3 4 5 6 7 8 9 10 11 12 13 14 15 16 17 18 19 20 21 22 23 24 25 26 27 28 29 30 31 32 33 34 35 36 37 38 39 40 41 42 43 44 45 46 47 48 49 50

382
ASUS41 KAKQ 242216
RWRAKQ

REGIONAL WEATHER ROUNDUP
NATIONAL WEATHER SERVICE WAKEFIELD VA
600 PM EDT SUN SEP 24 2017

Note: "fair" indicates few or no clouds below 12,000 feet with no
significant weather and/or obstructions to visibility. * = Denotes
station may not report precipitation (e.g., rain,snow,etc.),
thunder or fog.

VAZ042-051-052>054-056-242300-
NORTHERN VIRGINIA

CITY           SKY/WX    TMP DP  RH WIND       PRES   REMARKS
WASH NATIONAL  MOSUNNY   87  64  46 NE8       30.03S
DULLES         MOSUNNY   87  65  47 CALM      30.04S
FORT BELVOIR   SUNNY     85  65  51 SE6       30.03S
QUANTICO       SUNNY     82  73  74 S6        30.03S
FREDERICKSBRG* SUNNY     85  65  51 NE3       30.02S
STAFFORD*      SUNNY     85  62  46 CALM      30.08R
WARRENTON      PTSUNNY   88  60  39 E5        30.04S
CULPEPER*      MOSUNNY   88  66  47 CALM      30.04S
MANASSAS*      SUNNY     86  68  54 S7        30.04
LEESBURG*      SUNNY     88  68  51 CALM      30.05S
WINCHESTER     PTSUNNY   81  64  57 SE3       30.06S
FRONT ROYAL*   CLEAR     82  64  54 CALM      30.06S
LURAY*         CLEAR     84  59  42 N9        30.06S
$$

VAZ048-049-060>072-079>083-242300-
CENTRAL AND SOUTH CENTRAL VIRGINIA

CITY           SKY/WX    TMP DP  RH WIND       PRES   REMARKS
RICHMOND       MOSUNNY   85  60  42 E9        30.02R
CHESTERFIELD*  NOT AVBL
PETERSBURG*    SUNNY     84  58  40 E7        30.02S
HANOVER        SUNNY     85  62  46 NE3       30.03R
TAPPAHANNOCK*  SUNNY     86  43  21 E5        30.04R
QUINTON*       FAIR      83  64  51 E5        30.02R
CHARLOTTSVILLE MOSUNNY   87  64  46 NE7       30.04F
GORDONSVILLE*  CLEAR     85  65  50 NE3       30.04S
ORANGE*        SUNNY     82  63  51 NE5       30.04S
LOUISA*        SUNNY     84  63  48 E3        30.04S
BUMPASS*       FAIR      83  64  52 CALM      30.04S
FARMVILLE*     SUNNY     85  65  51 NE6       30.02R
CREWE*         FAIR      81  69  65 CALM      30.02S
FORT PICKETT*  FAIR      82  63  51 E3        30.02S
CHASE CITY*    FAIR      85  63  47 E7        30.02S
CLARKSVILLE*   FAIR      84  61  45 NE5       30.01S
SOUTH HILL*    SUNNY     83  63  50 CALM      30.07S
LAWRENCEVILLE* FAIR      83  62  49 NE3       30.02R
EMPORIA*       SUNNY     82  59  44 N5        30.02S
$$

VAZ088>098-242300-
SOUTHEAST VIRGINIA

CITY           SKY/WX    TMP DP  RH WIND       PRES   REMARKS
NORFOLK        SUNNY     77  67  71 NE10      30.01S
VIRGINIA BEACH MOSUNNY   76  64  66 NE7       30.00S
NORFOLK NAVAL  MOSUNNY   79  64  60 E9        30.02F
WEST POINT*    SUNNY     82  61  47 CALM      30.04R
SALUDA*        FAIR      81  67  61 E3        30.02S
NEWPORT NEWS   SUNNY     79  65  62 E10       30.02S
LANGLEY AFB    NOT AVBL
FORT EUSTIS    SUNNY     86  63  45 E7        30.00R
WILLIAMSBURG*  SUNNY     84  66  54 CALM      30.03R
HR EXEC AP*    FAIR      79  62  56 NE3       30.01F
FRANKLIN*      SUNNY     81  60  48 NE6       30.01S
US460-WAKEFLD  SUNNY     83  64  52 CALM      30.01S
$$

VAZ020-022-025-037-045-242300-
WEST CENTRAL AND SOUTHWEST VIRGINIA

CITY           SKY/WX    TMP DP  RH WIND       PRES   REMARKS
STAUNTON*      MOSUNNY   83  64  52 SE3       30.09R
WAYNESBORO*    CLEAR     82  65  56 SE6       30.09S
HOT SPRINGS VA SUNNY     74  52  47 E3        30.22S
LYNCHBURG      CLOUDY    83  60  45 NE8       30.05S
DANVILLE       PTSUNNY   83  63  50 CALM      30.02S
SOUTH BOSTON*  FAIR      82  62  51 CALM      30.02S
MARTINSVILLE   CLOUDY    82  65  56 CALM      30.07S
ROANOKE        MOSUNNY   85  59  41 SE6       30.08R
BLACKSBURG     MOSUNNY   80  58  46 E6        30.15S HAZE
DUBLIN*        MOSUNNY   79  56  44 E5        30.13S
MARION*        MOSUNNY   79  48  33 E3        30.16S
HILLSVILLE*    PTSUNNY   74  52  46 CALM      30.15R
RICHLANDS*     FAIR      82  49  32 SE6       30.14S
WISE*          SUNNY     81  54  39 CALM      30.15S
ABINGDON*      MOSUNNY   85  53  32 E8        30.10R
$$

MDZ021>025-VAZ099-100-242300-
SOUTHERN MARYLAND AND THE DELMARVA PENINSULA

CITY           SKY/WX    TMP DP  RH WIND       PRES   REMARKS
PATUXENT RIVER PTSUNNY   85  65  51 NW5       30.02S
BAY BRIDGE APT SUNNY     84  68  58 NW5       30.02F
LEONARDTOWN    SUNNY     82  64  54 CALM      30.05R
DOVER          CLEAR     81  71  72 E7        30.03S
GEORGETOWN     CLEAR     82  64  54 SE5       30.04S
EASTON         SUNNY     86  63  45 CALM      30.06F
CAMBRIDGE      SUNNY     84  66  54 VRB3      30.03R
SALISBURY      CLEAR     83  64  52 SE5       30.03R
OCEAN CITY     CLEAR     75  68  78 E6        30.04S
WALLOPS ISLAND SUNNY     76  66  71 E6        30.03S
ACCOMACK*      SUNNY     78  66  66 E3        30.03R
$$

NCZ012>017-030>032-242300-
NORTH CENTRAL AND EASTERN NORTH CAROLINA

CITY           SKY/WX    TMP DP  RH WIND       PRES   REMARKS
ROANOKE RAPIDS FAIR      82  59  44 NE8       30.00R
RALEIGH        CLOUDY    83  59  44 E8        30.00S
ELIZABETH CITY SUNNY     79  68  69 NE13      29.99S
AHOSKIE*       SUNNY     82  60  48 N7        30.00S
EDENTON*       SUNNY     82  60  46 NE9       29.99S
CURRITUCK*     SUNNY     77  68  74 NE8       30.00F
KILL DEVIL HLS SUNNY     73  66  79 CALM      29.97S
MANTEO         SUNNY     74  66  76 NE10      29.99S
CAPE HATTERAS  MOSUNNY   76  68  76 NE12G20   29.96S
TARBORO*       NOT AVBL
GOLDSBORO      MOSUNNY   82  67  60 NE8       29.95S
WASHINGTON     MOSUNNY   82  66  57 NE7       29.97S
GREENVILLE     MOSUNNY   82  64  54 NE6       29.99S
NEW BERN       CLOUDY    82  65  56 NE10      29.97R
WILMINGTON     MOSUNNY   82  68  62 NE7       29.94S
$$

VAZ048-242300-
ELSEWHERE

CITY           SKY/WX    TMP DP  RH WIND       PRES   REMARKS
HARRISBURG PA  MOSUNNY   84  73  69 CALM      30.03R
BALTIMORE      MOSUNNY   87  62  43 E7        30.03S
ANNAPOLIS      SUNNY     87  69  54 N5        30.02S
ANDREWS AFB    SUNNY     84  64  49 E5        30.03S
PHILADELPHIA   PTCLDY    88  64  44 SE6       30.01S
HENDERSON NC   PTSUNNY   82  57  43 CALM      30.01S
GREENSBORO     CLOUDY    82  61  48 N5        30.04R
ROCKY MOUNT    MOSUNNY   80  66  62 NE3       29.98F
$$

VAZ100-242300-
MARINE

STATION/POSITION TIME  TEMP    WIND        PRES    WAVE   SWELL
                       AIR SEA DIR/SP/G            HT/PER HT/PER
                 (UTC) (F)     (DEG/KT/KT) (MB)    (FT/S) (FT/S)
BRANDYWINE LGT   2148          180/  7/  7 1017.3F
CAPE MAY NJ      2148   76 75  120/  5/  6 1016.5F
LEWES DE         2148   78 75  130/  3/  4 1016.7F
15NM E FENWICK I 2150   74 74   CALM  /  2 1017.4F   3/11   3/11
OCEAN-CITY-INLET 2148   76 76   90/  3/  4 1017.6R
WACHAPREAGUE VA  2148   76 81   80/  5/  6 1016.8S
THOMAS POINT MD  2200   85 77     CALM       N/A
GOOSES REEF MD   2200   81 77   30/  6/  6 1017.4    0
COVE POINT MD    2148   80     330/  3/  4 1017.5R
SOLOMONS ISLAND  2148   84 78  330/  2/  3 1016.2F
BISHOPS HEAD MD  2148   82 81  310/  5/  6 1016.9F
PINEY POINT MD   2148          160/  3/  3   N/A
POTOMAC MD       2200   80 78  120/  4/  4 1016.0    0
CAMBRIDGE MD     2148   87 79              1017.8R
LEWISETTA VA     2148   81 78  110/  3/  3 1016.6F
RAPPAHANNOCK LGT 2148           30/  5/  7 1017.1F
STINGRAY PT      2150   80      50/  4/  6 1017.0F
YORK RVR RNG VA  2148   78      60/  7/  8 1017.0F
YORKTOWN VA      2148   79 78   90/  7/  8 1016.2S
JAMESTOWN VA     2200      80  120/  6/ 10   N/A     0
DOMINION TERM VA 2148   79      60/  3/  8 1016.6S
KIPTOPEKE VA     2148      76   70/  6/  8   N/A
CHES BAY BRIDGE  2148   75 76   70/  9/ 10 1016.2F
CAPE HENRY VA    2148   75      50/ 10/ 11   N/A
WILLOUBY STN VA  2148           80/  9/ 10 1016.4F
S CRANEY ISL VA  2148   78      70/ 10/ 12 1016.0F
CAPE HENRY BUOY  2200      76                N/A     3/13   2/13
1ST LANDING BUOY 2200   76 77              1016.3    1/ 4
64NM E OF VA BCH 2150   71 71   30/ 12/ 16 1015.7F   8/12   8/12
DUCK PIER NC     2148   73 77   30/ 15/ 16 1015.0F
44100 DUCK FRF   2135      75                N/A     5/13   3/13
44056 DUCK FRF   2130      76                N/A     4/15   3/15
OREGON INLET NC  2148           30/ 11/ 14 1015.0R
HATTERAS NC      2148   76 78   50/ 11/ 19 1014.5R
DIAMOND SHLS NC  2150   75 81   30/ 19/ 23 1013.6R  10/16   8/16
CAPE LOOKOUT NC  2200   77      40/ 21/ 23 1013.8R
$$




USA.gov is the U.S. government's official web portal to all federal, state and local government web resources and services.